Location: Kellogg
(38.0159°N, 90.0546°W)
Time: 07:36:07
(UTC+00:00)

S-56A Canister/Altair - Pass Details

Date: 20 September 2024
Orbit: 636 x 2487 km, 38.9° (Epoch: 09 October)

Event Time Altitude Azimuth Distance (km) Brightness Sun altitude
Rises 03:10:32 0° 283° (WNW) 3,548 11.8 -35.9°
Reaches altitude 10° 03:12:43 10° 281° (W) 2,777 11.0 -36.3°
Enters shadow 03:17:46 56° 258° (WSW) 1,447 8.9 -37.1°
Maximum altitude 03:19:29 71° 199° (SSW) 1,384 - -37.3°
Drops below altitude 10° 03:29:54 10° 118° (ESE) 4,172 - -38.9°
Sets 03:33:56 0° 116° (ESE) 5,440 - -39.5°
